Location: Hawen
(52.0833°N, 4.4167°W)
Time: 12:52:11
(UTC+00:00)

Daily predictions for brighter satellites

Satellite Brightness Start Highest point End
(mag) Time Altitude Azimuth Time Altitude Azimuth Time Altitude Azimuth
Envisat 3.1 16:39:16 10° SE 16:44:14 56° ENE 16:49:13 10° N
SL-08 R/B 3.5 16:39:44 10° NNE 16:44:38 80° WNW 16:49:26 10° SSW
GEOS 3 Rocket 4.3 16:39:31 10° NE 16:44:47 53° NW 16:49:58 10° WSW
ASTRO F (AKARI) 4.2 16:42:15 10° SSE 16:45:29 74° ENE 16:48:38 10° NNW
Lacrosse 5 rocket 2.2 16:43:21 10° SSW 16:46:34 30° SE 16:49:45 10° ENE
Cosmos 1862 3.8 16:43:21 10° NNW 16:47:22 66° W 16:51:20 10° S
Cosmos 1500 Rocket 4.4 16:46:53 10° NNW 16:51:13 57° W 16:55:34 10° S
Cosmos 2322 Rocket 4.1 16:47:30 10° WNW 16:51:23 18° NNW 16:55:17 10° NNE
Cosmos 2297 3.7 16:46:19 10° NNW 16:52:03 80° ENE 16:57:46 10° SE
YAOGAN 6 2.9 16:49:42 10° SE 16:53:10 45° ENE 16:56:37 10° N
Cosmos 1606 3.1 16:51:26 10° SSE 16:55:07 42° E 16:58:49 10° NNE
Landsat 5 4.1 16:54:19 10° NNE 16:58:32 41° E 17:02:48 10° S
SL-16 R/B 2.7 16:53:50 10° S 16:59:04 41° ESE 17:04:21 10° NE
BREEZE-M DEB (TANK) 4.2 17:00:07 10° SSW 17:01:28 13° SSE 17:02:34 10° SE
Cosmos 2154 Rocket 4.3 16:55:43 10° NNW 17:02:04 77° W 17:08:24 10° S
Sich 1 3.0 17:01:54 10° N 17:06:20 86° E 17:10:40 10° S
SMAP 3.2 17:02:55 10° SE 17:07:27 53° ENE 17:12:00 10° N
Cosmos 1656 Rocket 4.4 17:02:44 10° NNW 17:07:50 32° NE 17:12:49 10° ESE
CZ-4C R/B 3.3 17:06:05 10° NNE 17:09:39 50° E 17:13:10 10° S
Cosmos 1470 Rocket 4.2 17:07:09 10° N 17:11:06 33° ENE 17:15:01 10° SE
YAOGAN 1 4.3 17:09:26 10° E 17:11:36 14° NE 17:13:45 10° NNE
Cosmos 1151 Rocket 3.7 17:09:47 10° SSE 17:13:37 33° E 17:17:28 10° NNE
SL-8 Rocket 4.0 17:13:56 10° N 17:20:12 68° ENE 17:26:27 10° SSE
Cosmos 2341 Rocket 4.0 17:15:26 10° N 17:21:46 86° ENE 17:28:08 10° S
Cosmos 1238 Rocket 4.4 17:20:37 10° NNE 17:23:11 17° ENE 17:26:02 10° ESE
CZ-2C R/B 4.0 17:19:49 10° ESE 17:23:30 22° ENE 17:27:06 10° N
TELKOM 3 3.7 17:21:45 10° WSW 17:24:34 52° S 17:26:18 17° ESE
COSMO-SKYMED 1 4.0 17:23:06 15° ENE 17:24:46 18° E 17:27:43 10° SE
Cosmos 2360 Rocket 4.2 17:23:33 10° WNW 17:27:17 18° NNW 17:31:01 10° NNE
X-37B 3.1 17:25:35 10° SSW 17:27:20 14° SSE 17:29:06 10° SE
Cosmos 2333 Rocket 3.8 17:23:18 10° W 17:28:05 27° NW 17:32:55 10° NNE
Radarsat Rocket 4.4 17:23:13 10° SSE 17:29:28 79° WSW 17:36:36 10° NNW
USA 81 4.0 17:24:39 10° N 17:29:55 64° E 17:35:10 10° SSE
Cosmos 2219 Rocket 3.8 17:25:16 10° W 17:30:05 28° NW 17:34:54 10° NNE
USA 281 3.7 17:24:58 10° ESE 17:30:52 37° NE 17:36:48 10° NNW
Cosmos 2285 Rocket 4.2 17:25:46 10° NNW 17:32:12 80° WSW 17:38:32 10° SSE
CORIOLIS 4.1 17:29:26 10° SSE 17:34:51 80° ENE 17:40:20 10° NNW
Helios 1A Rocket 4.1 17:33:25 17° E 17:34:52 21° ENE 17:37:53 10° NNE
COSMOS 2428 4.2 17:30:16 10° W 17:35:16 30° NW 17:40:16 10° NNE
Meteor 1-4 Rocket 3.2 17:32:12 10° SSE 17:35:26 33° E 17:37:26 18° NE
Cosmos 1821 Rocket 4.5 17:29:56 10° N 17:35:39 36° ENE 17:41:25 10° SE
H-2A R/B 3.2 17:35:17 13° E 17:38:26 22° ENE 17:42:15 10° N
USA 267 3.4 17:34:11 14° E 17:39:55 64° NNE 17:46:23 10° WNW
Cosmos 44 Rocket 3.6 17:35:23 10° NW 17:40:24 50° NE 17:45:08 12° ESE
Cosmos 1939 Rocket 3.2 17:36:58 10° SE 17:40:36 39° ENE 17:44:19 10° N
Cosmos 1933 Rocket 3.8 17:36:55 10° N 17:41:15 45° ENE 17:45:31 10° SSE
Cosmos 389 Rocket 3.2 17:37:55 10° SSW 17:41:16 53° WNW 17:44:39 10° N
Cosmos 1328 Rocket 3.6 17:37:15 10° S 17:41:28 55° E 17:45:45 10° NNE
Cosmos 1666 Rocket 4.0 17:37:56 10° NNW 17:42:20 66° W 17:46:45 10° S
CZ-4 R/B 2.4 17:41:26 19° E 17:43:01 24° ENE 17:46:19 10° N
Cosmos 1980 Rocket 4.3 17:41:33 10° N 17:43:03 11° N 17:44:33 10° NNE
Meteor 1-20 Rocket 4.4 17:37:34 10° NNW 17:43:27 80° W 17:49:16 10° S
Cosmos 1602 3.6 17:39:58 10° N 17:43:54 67° ENE 17:47:47 10° SSE
IRS-1C Rocket 4.3 17:42:05 10° SE 17:47:07 47° ENE 17:52:11 10° N
Cosmos 2181 Rocket 4.0 17:43:10 10° S 17:49:33 78° E 17:55:54 10° NNE
H-2A R/B 3.8 17:45:50 10° S 17:49:50 42° W 17:53:43 10° NNW
Cosmos 2237 Rocket 3.2 17:44:38 10° WSW 17:50:01 44° NW 17:55:26 10° NNE
NOAA 11 4.1 17:45:26 10° SSE 17:50:52 83° ENE 17:56:22 10° NNW
CZ-4B R/B 3.5 17:46:53 10° S 17:52:10 67° WSW 17:57:27 10° NNW
SL-16 R/B 4.4 17:52:21 10° NNW 17:54:27 12° N 17:56:33 10° NNE
Cosmos 1603 4.4 17:49:51 10° SSE 17:54:45 32° ESE 17:56:55 24° ENE
Meteor 1-26 Rocket 4.3 17:49:08 10° S 17:55:06 68° E 18:01:03 10° NNE
Cosmos 2369 Rocket 2.2 17:51:04 10° NNW 17:56:48 89° WSW 18:02:28 10° SSE
H-2A R/B 2.1 17:52:46 10° NNE 17:56:59 76° WNW 18:01:16 10° SSW
CZ-2D R/B 3.6 17:53:50 10° SE 17:57:27 41° ENE 18:01:06 10° N
Cosmos 1943 Rocket 2.8 17:52:34 10° NW 17:58:02 59° WSW 18:03:30 10° SSE
Cosmos 1943 4.0 17:53:17 10° SSE 17:58:09 31° ESE 17:59:58 25° ENE
Meteor 1-14 Rocket 4.3 17:53:16 10° N 17:59:15 78° ENE 18:05:15 10° SSE
Meteor 1-5 Rocket 4.4 17:53:30 10° N 17:59:18 51° ENE 18:04:55 10° SSE
Cosmos 1538 Rocket 4.2 17:55:02 10° S 18:00:14 52° ESE 18:03:44 21° NE
ADEOS Rocket 4.1 17:54:26 10° N 18:02:01 61° WNW 18:09:35 10° SW
Cosmos 1782 2.7 17:59:54 10° S 18:03:50 66° E 18:06:45 18° NNE
Okean O Rocket 2.4 18:00:00 10° S 18:04:16 54° W 18:08:36 10° NNW
ISS -3.8 18:01:35 10° W 18:04:58 81° S 18:05:55 44° ESE
Okean-O 3.0 18:01:44 10° SE 18:05:53 41° ENE 18:10:04 10° N
Cosmos 1633 Rocket 4.2 18:02:15 10° NNW 18:06:27 46° W 18:10:37 10° SSW
Cosmos 2056 Rocket 4.1 18:03:22 10° NNW 18:08:12 34° NE 18:09:29 30° E
CENTAUR R/B 3.8 18:04:17 10° SSE 18:07:44 19° ESE 18:07:44 19° ESE
ARGOS 3.9 18:08:31 29° ENE 18:08:51 29° ENE 18:13:25 10° N
Cosmos 1933 4.0 18:05:51 10° SSW 18:09:50 55° WNW 18:13:52 10° N
SL-08 R/B 4.3 18:04:09 10° N 18:10:20 80° ENE 18:16:27 10° SSE
ERS-2 2.2 18:10:45 41° NE 18:11:40 55° ESE 18:15:15 10° S
SKYMED 2 3.8 18:11:44 33° NE 18:13:14 47° E 18:17:25 10° S
Cosmos 1869 Rocket 3.9 18:11:40 10° N 18:15:59 43° ENE 18:17:48 29° SE
Cosmos 1867 4.3 18:17:04 10° WSW 18:22:20 49° NW 18:25:34 23° NNE
Cosmos 1624 Rocket 4.3 18:19:57 10° NNW 18:25:04 44° NE 18:25:56 41° E
Lacrosse 5 rocket 1.0 18:21:53 10° WSW 18:25:29 65° NNW 18:25:53 59° NNE
BREEZE-M DEB (TANK) 2.8 18:25:00 10° WSW 18:26:37 42° SSW 18:26:37 42° SSW
Meteor 1-10 Rocket 4.4 18:21:51 10° SSE 18:27:11 46° E 18:28:49 36° NE
Cosmos 371 Rocket 3.5 18:22:40 10° NNW 18:27:26 49° ENE 18:28:01 46° E
Cosmos 489 Rocket 4.4 18:23:24 10° SSW 18:29:37 88° ESE 18:34:18 19° NNE
CZ-4B R/B 1.4 18:29:34 66° NW 18:29:46 70° WNW 18:32:54 10° SSW
Cosmos 773 Rocket 4.4 18:25:44 10° SW 18:30:58 63° WNW 18:34:54 18° NNE
Cosmos 2322 Rocket 4.4 18:36:24 10° NNW 18:37:57 11° N 18:39:26 10° NNE
Cosmos 1500 3.4 18:36:07 10° NNW 18:39:55 68° W 18:43:44 10° S
NOSS 3-2 (A) 3.7 18:35:37 10° S 18:40:58 43° ESE 18:41:27 42° ESE
Cosmos 2239 Rocket 4.3 18:36:20 10° N 18:42:32 81° E 18:48:44 10° SSE
SL-16 R/B 3.1 18:37:45 10° WSW 18:43:11 45° NW 18:46:58 19° NNE
Cosmos 1535 Rocket 4.4 18:37:19 10° N 18:43:22 57° ENE 18:49:22 10° SSE
YAOGAN 1 2.4 18:46:28 67° SE 18:47:01 81° ENE 18:51:22 10° NNW
USA 215 3.7 18:46:42 39° ESE 18:47:44 41° SE 18:53:50 10° SSW
SL-24 DEB 4.4 18:44:11 10° N 18:48:56 72° W 18:53:37 10° SSW
Cosmos 1697 Rocket 4.4 18:45:58 10° NNW 18:48:48 18° NNE 18:48:48 18° NNE
Cosmos 1656 Rocket 4.1 18:46:14 10° NW 18:51:50 63° WSW 18:57:19 10° SSE
MOS 1 Rocket 3.6 18:52:43 61° E 18:52:52 61° E 18:58:12 10° S
USA 238 DEB 3.7 18:53:53 10° SSW 19:00:14 52° ESE 19:00:35 52° ESE
USA 238 3.7 18:53:59 10° SSW 19:00:20 52° ESE 19:00:39 51° ESE
COSMO-SKYMED 1 2.9 19:00:19 47° NNW 19:01:21 63° WNW 19:05:38 10° SSW
Cosmos 158 Rocket 4.0 18:56:40 10° SSW 19:00:45 58° SSE 19:00:45 58° SSE
Cosmos 1238 Rocket 3.4 18:59:05 10° NNW 19:02:57 62° W 19:07:35 10° S
Cosmos 332 Rocket 4.5 18:58:08 10° NNW 19:01:26 41° N 19:01:26 41° N
CZ-2C R/B 3.2 18:58:05 10° S 19:03:00 66° WSW 19:07:48 10° NNW
X-37B 3.3 19:00:43 10° SW 19:01:44 16° SW 19:01:44 16° SW
Cosmos 1934 Rocket 3.9 18:58:57 10° N 19:05:23 84° E 19:11:42 10° S
Cosmos 923 Rocket 3.9 19:00:20 10° SSW 19:05:13 75° SSE 19:05:13 75° SSE
Helios 1A Rocket 3.6 19:09:39 52° WSW 19:09:43 52° W 19:13:41 10° NNW
CSL-04 Debris 4.1 19:09:14 44° SSE 19:11:05 89° WSW 19:16:37 10° NNW
Cosmos 2228 Rocket 3.4 19:07:43 10° SSW 19:12:02 64° W 19:12:02 64° W
Cosmos 1812 4.5 19:09:49 10° SSW 19:11:43 27° SW 19:11:43 27° SW
Cosmos 2360 Rocket 4.5 19:12:23 10° NNW 19:13:49 11° N 19:14:21 11° N
Cosmos 2333 Rocket 4.5 19:12:04 10° NW 19:14:27 13° NNW 19:16:04 11° N
USA 281 3.5 19:08:32 10° SSE 19:15:04 67° WSW 19:21:39 10° NNW
Cosmos 2219 Rocket 4.5 19:13:46 10° NW 19:16:05 12° NNW 19:17:45 11° N
Nadezhda 3 Rocket 4.2 19:10:00 10° SSW 19:16:21 72° WNW 19:22:45 10° N
Meteor 2-6 Rocket 4.4 19:11:26 10° SSW 19:16:57 65° WNW 19:19:30 32° N
H-2A R/B 2.1 19:15:56 47° S 19:17:24 75° WSW 19:22:31 10° NNW
CZ-4 R/B 2.5 19:17:28 41° WSW 19:17:50 42° W 19:21:44 10° NNW
Meteor 1-11 Rocket 4.1 19:16:43 10° NNW 19:22:26 66° W 19:28:15 10° S
USA 267 3.2 19:21:32 58° SE 19:22:54 76° SSW 19:29:30 10° WNW
CSL-04 Rocket 3.7 19:25:43 73° WSW 19:25:50 74° WSW 19:31:10 10° NNW
Cosmos 1980 Rocket 4.2 19:25:25 10° NNW 19:27:02 15° N 19:27:02 15° N
Cosmos 1680 Rocket 4.3 19:27:07 10° SSW 19:30:41 44° SSW 19:30:41 44° SSW
Cosmos 2237 Rocket 4.4 19:32:14 10° WNW 19:35:38 16° NNW 19:37:29 14° N
Cosmos 1603 4.2 19:33:08 10° SW 19:38:38 55° NW 19:38:52 55° NW
ISS -0.4 19:38:27 10° W 19:38:53 13° W 19:38:53 13° W
Cosmos 1943 3.6 19:36:19 10° SW 19:41:49 58° WNW 19:41:49 58° WNW
ARGOS 4.0 19:50:03 47° NW 19:50:03 47° NW 19:54:11 10° NNW
Cosmos 2056 Rocket 4.5 19:45:27 10° NW 19:49:52 45° W 19:49:52 45° W
CENTAUR R/B 3.5 19:51:37 10° SW 19:54:58 37° SSW 19:54:58 37° SSW
USA 215 4.3 20:34:04 37° WSW 20:34:04 37° WSW 20:37:45 10° WSW
